DIRECTV 4S (26985 NORAD) Tracking and Keplerian Element Data

This shows tracking and keplerian element data for the satellite.

Feedback or suggestion? Click here.




ElementValue
Catalog26985
NameDIRECTV 4S
Epoch Orbit6247
Epoch Day345.47116146
Epoch Year2018
RAAN311.3204
Inclination0.0118
Eccentricity0.0002107
Argument of Perigee306.9709
Mean Anonmoly250.273
Mean Motion1.0027147
Decay Rate-1.07E-06
L11 26985U 01052A 18345.47116146 -.00000107 00000-0 00000+0 0 9997
L22 26985 0.0118 311.3204 0002107 306.9709 250.2730 1.00271470 62470

Live tracking and technical data element details for DIRECTV 4S (NORAD 26985). DIRECTV 4S can be tracked NOW for your location showing map with azimuth and elevation plus other details from your city location.

Track the satellite on the map from your city or location and see movement details for azimuth, elevation, latitude, longitude, range, height, and movement on the map or in text.







IsCatalogInMostPopularTable: catalog: 26985, numindb: 60
Update: records affected: 1



GetName: 26985 DIRECTV 4S

Hit Count: updated at: Thu, 13 Dec 2018 04:48:55 GMT